Change the Weather History Date:

Sunday, February 24, 2013

  Actual Average Record
Temperature  
Mean Temperature 36 °F 30 °F  
Max Temperature 43 °F 42 °F 71 °F (1985)
Min Temperature 28 °F 20 °F -12 °F (2015)
Degree Days  
Heating Degree Days 29 34  
Month to date heating degree days 860 883  
Since 1 July heating degree days 4011 4435  
Cooling Degree Days 0 0  
Month to date cooling degree days 0 0  
Year to date cooling degree days 0 0  
Moisture  
Dew Point 32 °F    
Average Humidity 77    
Maximum Humidity 100    
Minimum Humidity 54    
Precipitation  
Precipitation 0.01 in 0.10 in 1.52 in (1977)
Month to date precipitation 0.79 2.24  
Year to date precipitation 2.84 5.32  
Sea Level Pressure  
Sea Level Pressure 29.82 in    
Wind  
Wind Speed 5 mph (NNW)    
Max Wind Speed 15 mph    
Max Gust Speed 23 mph    
Visibility 6 miles    
Events Snow    
T = Trace of Precipitation, MM = Missing Value Source: NWS Daily Summary

Daily Weather History Graph

Daily Weather History Graph

Search for Another Location

Airport or City:

Trip Planner

Search our weather history database for the weather conditions in past years. The results will help you decide how hot, cold, wet, or windy it might be!

Date:

Astronomy

Feb. 24, 2013 Rise Set
Actual Time 6:37 AM EST 5:40 PM EST
Civil Twilight 6:09 AM EST 6:08 PM EST
Nautical Twilight 5:37 AM EST 6:40 PM EST
Astronomical Twilight 5:05 AM EST 7:12 PM EST
Moon 4:48 PM EST (2/24) 5:33 AM EST (2/24)
Length of Visible Light 11h 58m
Length of Day
11h 02m
Waxing Gibbous, 99% of the Moon is Illuminated
Feb 24
Waxing Gibbous
Feb 25
Full
Mar 4
Last Quarter
Mar 11
New
Mar 19
First Quarter

Hourly Weather History & Observations

Time (EST) Temp. Windchill Dew Point Humidity Pressure Visibility Wind Dir Wind Speed Gust Speed Precip Events Conditions
12:53 AM 35.1 °F 31.0 °F 34.0 °F 96% 29.82 in 4.0 mi North 4.6 mph - N/A   Overcast
1:31 AM 35.6 °F 32.8 °F 33.8 °F 93% 29.82 in 2.5 mi North 3.5 mph - N/A   Overcast
1:53 AM 35.1 °F - 34.0 °F 96% 29.82 in 2.0 mi Calm Calm - N/A   Overcast
2:04 AM 35.6 °F - 35.6 °F 100% 29.82 in 1.8 mi Calm Calm - 0.00 in   Overcast
2:10 AM 35.6 °F - 35.6 °F 100% 29.82 in 2.0 mi Calm Calm - 0.01 in   Overcast
2:36 AM 35.6 °F - 35.6 °F 100% 29.82 in 3.0 mi Calm Calm - 0.01 in   Overcast
2:53 AM 35.1 °F - 35.1 °F 100% 29.80 in 3.0 mi Calm Calm - 0.01 in   Overcast
3:53 AM 35.1 °F - 34.0 °F 96% 29.81 in 6.0 mi Calm Calm - N/A   Overcast
4:46 AM 35.6 °F 31.7 °F 33.8 °F 93% 29.79 in 2.5 mi NNE 4.6 mph - N/A   Overcast
4:53 AM 35.1 °F 30.1 °F 34.0 °F 96% 29.79 in 3.0 mi NNE 5.8 mph - N/A   Overcast
5:53 AM 35.1 °F - 34.0 °F 96% 29.79 in 8.0 mi Calm Calm - N/A   Overcast
6:53 AM 35.1 °F - 34.0 °F 96% 29.78 in 6.0 mi Calm Calm - N/A   Overcast
7:53 AM 35.1 °F 29.3 °F 34.0 °F 96% 29.78 in 6.0 mi NW 6.9 mph - N/A   Overcast
8:53 AM 35.1 °F 30.1 °F 34.0 °F 96% 29.78 in 10.0 mi NNW 5.8 mph - N/A   Overcast
9:53 AM 36.0 °F 30.3 °F 35.1 °F 97% 29.77 in 4.0 mi NNW 6.9 mph - N/A   Overcast
10:53 AM 37.9 °F 32.1 °F 35.1 °F 89% 29.77 in 9.0 mi North 8.1 mph - N/A   Overcast
11:53 AM 39.0 °F 34.0 °F 35.1 °F 86% 29.77 in 10.0 mi NNE 6.9 mph - N/A   Overcast
12:53 PM 39.9 °F 35.8 °F 35.1 °F 83% 29.75 in 10.0 mi NNW 5.8 mph - N/A   Overcast
1:53 PM 43.0 °F 38.2 °F 35.1 °F 74% 29.74 in 10.0 mi NNW 8.1 mph - N/A   Overcast
2:34 PM 42.8 °F 39.3 °F 33.8 °F 70% 29.75 in 10.0 mi NNW 5.8 mph - N/A   Overcast
2:53 PM 41.0 °F 38.0 °F 34.0 °F 76% 29.75 in 10.0 mi NW 4.6 mph - N/A   Overcast
3:53 PM 39.9 °F 33.9 °F 28.9 °F 65% 29.76 in 10.0 mi NW 9.2 mph - N/A   Overcast
4:53 PM 39.0 °F 32.3 °F 27.0 °F 62% 29.80 in 10.0 mi NNW 10.4 mph - N/A   Overcast
5:53 PM 37.0 °F 28.5 °F 23.0 °F 57% 29.84 in 10.0 mi NNW 13.8 mph - N/A   Overcast
6:53 PM 33.1 °F 25.5 °F 28.9 °F 85% 29.88 in 3.0 mi WNW 9.2 mph - 0.00 in Snow Light Snow
7:00 PM 33.8 °F 25.3 °F 28.4 °F 81% 29.89 in 2.0 mi NW 11.5 mph - 0.00 in Snow Light Snow
7:07 PM 33.8 °F 27.0 °F 28.4 °F 81% 29.90 in 3.0 mi NW 8.1 mph - 0.00 in Snow Light Snow
7:53 PM 34.0 °F 28.0 °F 26.1 °F 73% 29.91 in 3.0 mi NW 6.9 mph - 0.00 in   Haze
8:53 PM 33.1 °F 30.0 °F 27.0 °F 78% 29.93 in 10.0 mi WSW 3.5 mph - N/A   Overcast
9:53 PM 32.0 °F - 28.0 °F 85% 29.94 in 8.0 mi Calm Calm - N/A   Overcast
10:53 PM 33.1 °F 30.0 °F 23.0 °F 66% 29.94 in 10.0 mi North 3.5 mph - N/A   Clear
11:53 PM 28.9 °F - 24.1 °F 82% 29.96 in 10.0 mi Calm Calm - N/A   Clear